Regional Weather Roundup
Issued by NWS

Home | Current Version | Previous Version | Text Only | Print | Product List | Glossary Off
Versions: 1 2 3 4 5 6 7 8 9 10 11 12 13 14 15 16 17 18 19 20 21 22 23 24 25 26 27 28 29 30 31 32 33 34 35 36 37 38 39 40 41 42 43 44 45 46 47 48 49 50

000
ASUS43 KIND 180859
RWRIN

WEATHER ROUNDUP FOR INDIANA
NATIONAL WEATHER SERVICE INDIANAPOLIS IN
500 AM EDT FRI APR 18 2014

NOTE: "FAIR" INDICATES FEW OR NO CLOUDS BELOW 12,000 FEET WITH NO
SIGNIFICANT WEATHER AND/OR OBSTRUCTIONS TO VISIBILITY.

* - STATION DOES NOT REPORT WEATHER SUCH AS PRECIPITATION OR FOG.

+ - STATION NOT QUALITY CONTROLLED BY THE NATIONAL WEATHER SERVICE.
    USE DATA WITH CAUTION...ESPECIALLY DEWPOINT AND RELATIVE
    HUMIDITY OBSERVATIONS.

INZ001>003-010>013-019-020-181000-
NORTHWEST INDIANA

CITY           SKY/WX    TMP DP  RH WIND       PRES   REMARKS
GARY /AIRPORT/ CLOUDY    47  42  81 W3        30.23F
MONTICELLO +   CLOUDY    47  41  79 CALM      30.24S
VALPARAISO     CLOUDY    48  41  76 CALM      30.24S

$$

LMZ046-743>745-181000-
SOUTHERN LAKE MICHIGAN

STATION/POSITION TIME  TEMP WIND        PRES
                       AIR  DIR/SP/G
                 (UTC) (F)  (DEG/KT/KT) (MB)
MICHIGAN CITY    0800   49  130/  3/  5   N/A

$$

INZ004-005-014>016-021>024-181000-
NORTH CENTRAL INDIANA

CITY           SKY/WX    TMP DP  RH WIND       PRES   REMARKS
GOSHEN         CLOUDY    49  41  74 NW3       30.24R
SOUTH BEND     CLOUDY    47  42  83 CALM      30.24F

$$

INZ006>009-017-018-025>027-181000-
NORTHEAST INDIANA

CITY           SKY/WX    TMP DP  RH WIND       PRES   REMARKS
ANGOLA *+      CLEAR     46  39  76 CALM      30.24S
FORT WAYNE     MOCLDY    45  35  68 CALM      30.25S

$$

INZ028-029-035-036-043>045-051>053-181000-
WEST CENTRAL INDIANA

CITY           SKY/WX    TMP DP  RH WIND       PRES   REMARKS
GREENCASTLE +  CLEAR     41  36  81 CALM      30.26R
LAFAYETTE      CLOUDY    48  40  73 CALM      30.25S
TERRE HAUTE    PTCLDY    43  39  86 CALM      30.25S

$$

INZ030>032-037>040-046>048-054>057-064-065-181000-
CENTRAL INDIANA

CITY           SKY/WX    TMP DP  RH WIND       PRES   REMARKS
INDIANAPOLIS   PTCLDY    47  35  63 N3        30.26R
-EAGLE CREEK   PTCLDY    44  37  76 CALM      30.25R
KOKOMO *+      MOCLDY    43  36  75 S3        30.25S
MT COMFORT *+  CLEAR     39  37  93 CALM      30.26R
SHELBYVILLE    CLEAR     42  37  82 CALM      30.25R

$$

INZ033-034-041-042-049-050-058-059-181000-
EAST CENTRAL INDIANA

CITY           SKY/WX    TMP DP  RH WIND       PRES   REMARKS
MUNCIE         CLEAR     43  35  73 NW6       30.25R

$$

INZ060-061-067>069-081>083-085>088-181000-
SOUTHWEST INDIANA

CITY           SKY/WX    TMP DP  RH WIND       PRES   REMARKS
EVANSVILLE     PTCLDY    46  40  79 CALM      30.27R
HUNTINGBURG *+ PTCLDY    45  37  76 S5        30.27S

$$

INZ062-063-066-070>080-084-089>092-181000-
SOUTH CENTRAL AND SOUTHEAST INDIANA

CITY           SKY/WX    TMP DP  RH WIND       PRES   REMARKS
BLOOMINGTON    CLEAR     38  34  85 CALM      30.26R

$$




USA.gov is the U.S. government's official web portal to all federal, state and local government web resources and services.